Погода в Посус-ди-Калдас

Бразилия     21°47′03″S   46°33′34″W
темп.,
°C
ветер,
м/с
пор.,
м/с
влажн.,
%
обл.,
%
осадки,
мм/ч
давл.,
гПа
погр.,
м
27 июля, вт
вт2700:00+12ю11550 0.0 102011
03:00+11ю11600 0.0 101911
06:00+10ююв11650 0.0 101911
09:00+17ссв23440 0.0 1019322
12:00+24ссз36305 0.0 10161948
15:00+26зсз46255 0.0 10122535
18:00+18з22420 0.0 101423
21:00+16зюз01492 0.0 101511
28 июля, ср
ср2800:00+17сз124312 0.0 101539
03:00+13юз11625 0.0 101513
06:00+14з216697 0.0 101524
09:00+19зсз24575 0.0 1016657
12:00+21зсз596062 0.4 10151352
15:00+16з498391 1.5 1014927
18:00+13зюз2991100 0.3 1017672
21:00+11зюз2791100 1.4 1020570
29 июля, чт
чт2900:00+9зюз259255 0.0 1021216
03:00+6зюз249660 0.0 1022136
06:00+4ююз23941 0.0 102370
09:00+9юз13485 0.0 1023427
12:00+17зюз24190 0.0 10211117
15:00+17юз34195 0.0 10191157
18:00+9ююз33395 0.0 102240
21:00+5ююз22385 0.0 102522
30 июля, пт
пт3000:00+5ю223611 0.0 102514
03:00+4ююв113912 0.0 102510
06:00+3юв11508 0.0 102710
09:00+10всв24485 0.0 1026394
12:00+17всв33290 0.0 1024983
15:00+19всв21235 0.0 10221489
18:00+11в11403 0.0 102310
21:00+9ююв22450 0.0 102620
31 июля, сб
сб3100:00+6юв12541 0.0 102812
03:00+5вюв22665 0.0 102818
06:00+4вюв2276100 0.0 102926
09:00+11всв37525 0.0 1029486
12:00+17всв454075 0.0 1027943
15:00+20всв333517 0.0 10241338
18:00+13вюв1253100 0.0 102611
21:00+11юв2255100 0.0 102821